Portsmouth, NH

3:08 PM EST on January 19, 2018 (GMT -0500)
Pease International Tradeport

Weather History for KPSM - October, 2014

Change the Weather History Date:

Sunday, October 26, 2014

  Actual Average Record
Temperature  
Mean Temperature 52 °F -  
Max Temperature 59 °F 54 °F 76 °F (1991)
Min Temperature 45 °F 37 °F 25 °F (1983)
Degree Days  
Heating Degree Days 14    
Growing Degree Days 2 (Base 50)    
Moisture  
Dew Point 41 °F    
Average Humidity 67    
Maximum Humidity 86    
Minimum Humidity 51    
Precipitation  
Precipitation 0.00 in - - ()
Sea Level Pressure  
Sea Level Pressure 29.50 in    
Wind  
Wind Speed 9 mph (West)    
Max Wind Speed 18 mph    
Max Gust Speed 25 mph    
Visibility 10 miles    
Events      
Averages and records for this station are not official NWS values.
T = Trace of Precipitation, MM = Missing Value Source: NWS Daily Summary

Daily Weather History Graph

Daily Weather History Graph

Search for Another Location

Airport or City:

Trip Planner

Search our weather history database for the weather conditions in past years. The results will help you decide how hot, cold, wet, or windy it might be!

Date:

Astronomy

Oct. 26, 2014 Rise Set
Actual Time 7:10 AM EDT 5:43 PM EDT
Civil Twilight 6:41 AM EDT 6:12 PM EDT
Nautical Twilight 6:07 AM EDT 6:45 PM EDT
Astronomical Twilight 5:34 AM EDT 7:18 PM EDT
Moon 9:48 AM EDT (10/26) 7:49 PM EDT (10/26)
Length of Visible Light 11h 31m
Length of Day
10h 33m
Waxing Crescent, 8% of the Moon is Illuminated
Oct 26
Waxing Crescent
Oct 30
First Quarter
Nov 6
Full
Nov 14
Last Quarter
Nov 22
New

Hourly Weather History & Observations

Time (EDT) Temp. Windchill Dew Point Humidity Pressure Visibility Wind Dir Wind Speed Gust Speed Precip Events Conditions
12:58 AM 54.0 °F - 44.4 °F 70% 29.46 in 10.0 mi SW 5.8 mph - N/A   Overcast
1:58 AM 53.8 °F - 44.6 °F 71% 29.44 in 10.0 mi WSW 6.9 mph - N/A   Overcast
2:58 AM 51.6 °F - 44.2 °F 76% 29.43 in 10.0 mi SW 5.8 mph - N/A   Overcast
3:58 AM 50.5 °F - 43.9 °F 78% 29.41 in 10.0 mi West 5.8 mph - N/A   Overcast
4:58 AM 47.5 °F - 43.3 °F 86% 29.42 in 10.0 mi South 10.4 mph - N/A   Mostly Cloudy
5:58 AM 49.3 °F - 43.2 °F 79% 29.42 in 10.0 mi SSW 9.2 mph - N/A   Mostly Cloudy
6:58 AM 47.5 °F - 42.6 °F 83% 29.43 in 10.0 mi SW 4.6 mph - N/A   Mostly Cloudy
7:58 AM 48.2 °F - 43.7 °F 84% 29.44 in 10.0 mi West 4.6 mph - N/A   Mostly Cloudy
8:58 AM 51.1 °F - 44.2 °F 77% 29.45 in 10.0 mi WSW 8.1 mph - N/A   Mostly Cloudy
9:58 AM 56.3 °F - 43.5 °F 62% 29.44 in 10.0 mi West 10.4 mph - N/A   Mostly Cloudy
10:58 AM 58.8 °F - 43.2 °F 56% 29.44 in 10.0 mi WNW 12.7 mph - N/A   Mostly Cloudy
11:58 AM 56.8 °F - 41.5 °F 57% 29.44 in 10.0 mi West 9.2 mph - N/A   Mostly Cloudy
12:58 PM 56.3 °F - 41.5 °F 58% 29.45 in 10.0 mi West 18.4 mph 21.9 mph N/A   Mostly Cloudy
1:58 PM 57.6 °F - 40.8 °F 54% 29.44 in 10.0 mi West 16.1 mph 25.3 mph N/A   Mostly Cloudy
2:58 PM 57.0 °F - 39.0 °F 51% 29.46 in 10.0 mi West 16.1 mph 24.2 mph N/A   Mostly Cloudy
3:58 PM 56.3 °F - 38.7 °F 52% 29.47 in 10.0 mi West 16.1 mph 21.9 mph N/A   Mostly Cloudy
4:58 PM 55.0 °F - 37.8 °F 52% 29.51 in 10.0 mi West 16.1 mph 20.7 mph N/A   Mostly Cloudy
5:58 PM 52.0 °F - 38.3 °F 60% 29.55 in 10.0 mi West 10.4 mph 19.6 mph N/A   Scattered Clouds
6:58 PM 50.7 °F - 37.4 °F 60% 29.59 in 10.0 mi WNW 13.8 mph - N/A   Mostly Cloudy
7:58 PM 48.4 °F - 37.0 °F 65% 29.62 in 10.0 mi WNW 12.7 mph - N/A   Mostly Cloudy
8:58 PM 46.9 °F - 36.9 °F 68% 29.64 in 10.0 mi West 5.8 mph - N/A   Partly Cloudy
9:58 PM 45.9 °F 42.3 °F 36.1 °F 69% 29.66 in 10.0 mi WNW 6.9 mph - N/A   Partly Cloudy
10:58 PM 45.3 °F 42.3 °F 36.1 °F 70% 29.66 in 10.0 mi West 5.8 mph - N/A   Clear
11:58 PM 45.1 °F 40.3 °F 36.1 °F 71% 29.66 in 10.0 mi West 9.2 mph - N/A   Clear